Regional Weather Roundup
Issued by NWS

Home | Current Version | Previous Version | Text Only | Print | Product List | Glossary Off
Versions: 1 2 3 4 5 6 7 8 9 10 11 12 13 14 15 16 17 18 19 20 21 22 23 24 25 26 27 28 29 30 31 32 33 34 35 36 37 38 39 40 41 42 43 44 45 46 47 48 49 50

000
ASUS43 KMPX 201510
RWRMN
WEATHER ROUNDUP FOR MINNESOTA
NATIONAL WEATHER SERVICE TWIN CITIES/CHANHASSEN MN
900 AM CST THU NOV 20 2014


NOTE: "FAIR" INDICATES FEW OR NO CLOUDS BELOW 12,000 FEET WITH NO
SIGNIFICANT WEATHER AND/OR OBSTRUCTIONS TO VISIBILITY. N/A MEANS
CURRENT SKY AND/OR WEATHER CONDITIONS ARE NOT AVAILABLE.

MNZ060>063-068>070-201600-
   Twin Cities Metro

CITY           SKY/WX    TMP DP  RH WIND       PRES   REMARKS
TWIN CITIES    SUNNY     11  -3  53 NW13      30.11R WCI  -4
ST PAUL        SUNNY     11  -3  53 NW18G24   30.13R WCI  -7
CRYSTAL        SUNNY     12  -3  51 NW16      30.10R WCI  -5
BLAINE         SUNNY     12   0  57 NW13      30.08R WCI  -3
LAKEVILLE      SUNNY      9   0  66 W10       30.10R WCI  -6
EDEN PRAIRIE   SUNNY      8   2  76 SW6       30.11R WCI  -2
SOUTH ST PAUL  SUNNY     13  -3  48 NW17G23   30.10R WCI  -4
LAKE ELMO      FAIR      12   0  57 NW14      30.09R WCI  -3
$$
MNZ001>005-007-008-013>017-022>024-027-028-201600-
   Northwest Minnesota

CITY           SKY/WX    TMP DP  RH WIND       PRES   REMARKS
BEMIDJI        SUNNY      0  -6  78 NW10      30.03R WCI -16
HALLOCK        PTCLDY     0  -8  71 CALM      30.11R
ROSEAU         CLEAR      0  -8  71 W8        30.06R WCI -15
WARROAD        CLEAR      0  -8  71 W6        30.04R WCI -12
THIEF RVR FALL CLEAR      0  -4  85 CALM      30.08R
CROOKSTON      PTCLDY     0  -4  85 NW6       30.13R WCI -12
FOSSTON        MOSUNNY   -6  -9  84 CALM      30.08R
DETROIT LAKES  MOSUNNY    5   0  78 NW9       30.08R WCI  -9
MOORHEAD         N/A      9   5  85 CALM      30.13
PARK RAPIDS    SUNNY      4  -3  73 NW10      30.03R WCI -11
MAHNOMEN       FAIR      -3  -6  84 NW6       30.09R WCI -15
$$
MNZ006-009>011-018-025>026-201600-
   North Central Minnesota

CITY           SKY/WX    TMP DP  RH WIND       PRES   REMARKS
BAUDETTE       CLOUDY     4  -3  73 NW18      30.00R WCI -16
FLAG ISLAND    CLOUDY     1  -2  85 NW13      30.02R WCI -16
INTL FALLS     MOSUNNY    2  -5  72 NW14      29.96R WCI -16
WASKISH        SUNNY      3  -2  78 W10       30.03R WCI -12
BIG FORK       SUNNY      3  -2  78 NW7G16    29.98R WCI  -9
LONGVILLE      SUNNY      5  -2  72 NW5       30.02R WCI  -4
GRAND RAPIDS   MOSUNNY    3  -2  78 NW17G24   29.96R WCI -17
CRANE LAKE     LGT SNOW   1  -2  85 NW6       29.96R WCI -10
ORR            PTSUNNY    1  -6  71 NW13G21   29.91R WCI -16
COOK           MOSUNNY    1  -2  85 W9        29.94R WCI -14
WALKER         FAIR       1  -5  75 W7        30.03R WCI -11
$$
MNZ012-019>021-037-201600-
   Northeast Minnesota

CITY           SKY/WX    TMP DP  RH WIND       PRES   REMARKS
DULUTH         MOSUNNY    4  -3  73 NW14G22   29.91R WCI -14
ELY            CLOUDY     1  -4  78 N8G16     29.89R HAZE    WCI -12
HIBBING        MIX PCPN   3  -4  72 NW14      29.95R WCI -15
EVELETH        MOSUNNY    3  -4  72 NW10G18   29.93R WCI -12
DULUTH HARBOR  SUNNY      9   1  72 W15       30.01R HAZE    WCI  -8
TWO HARBORS    CLOUDY     9   0  66 NW5G16    29.91R HAZE    WCI   0
SILVER BAY     SUNNY      9   0  66 W7        29.89R WCI  -3
GRAND MARAIS     N/A      9  -2  61 NW5       29.91R WCI   1
G MARAIS ARPRT PTSUNNY    0  -8  71 NW9       29.77R WCI -16
$$
MNZ029>031-032-039>041-046>048-054>057-064-201600-
   West Central Minnesota

CITY           SKY/WX    TMP DP  RH WIND       PRES   REMARKS
FERGUS FALLS   MOSUNNY    1  -4  78 NW5       30.15R WCI  -8
WHEATON        MOSUNNY    5   1  85 W7        30.16R WCI  -7
MORRIS         MOSUNNY    3   0  85 W6        30.12R WCI  -8
ALEXANDRIA     MOSUNNY    6   1  80 W9        30.08R WCI  -8
ELBOW LAKE       N/A      2  -1  87 NW5       30.11R WCI  -8
WADENA         SUNNY      3  -2  78 W5        30.05R WCI  -6
GLENWOOD       MOSUNNY    3   0  85 W8        30.10R WCI -10
APPLETON       MOSUNNY    3   0  85 W7        30.15R WCI  -9
BENSON         MOSUNNY    0  -4  85 CALM      30.13R
ORTONVILLE     MOSUNNY    7   1  78 W7        30.14R WCI  -5
MADISON        MOSUNNY    7   1  78 W7        30.16R WCI  -5
WILLMAR        FAIR       1  -2  85 W7        30.13R WCI -11
$$
MNZ033>034-036-042>043-049>051-058-059-201600-
   Central Minnesota

CITY           SKY/WX    TMP DP  RH WIND       PRES   REMARKS
ST CLOUD       SUNNY     10  -2  58 NW14      30.09R WCI  -6
SAUK CENTRE    FAIR       1  -3  80 W5        30.09R WCI  -8
PAYNESVILLE    MOSUNNY   -2  -5  89 SW5       30.11R WCI -12
AITKIN         SUNNY      9  -2  61 W5        30.01R WCI   0
PINE RIVER     SUNNY      3  -2  78 NW6       30.06R WCI  -8
BRAINERD       SUNNY      5  -3  69 NW13      30.04R WCI -12
STAPLES        SUNNY      1  -4  78 W7        30.06R WCI -11
LONG PRAIRIE   FAIR       7   0  72 W8        30.07R WCI  -6
LITTLE FALLS   SUNNY      9  -2  61 W7        30.08R WCI  -3
LITCHFIELD     SUNNY      7   3  85 W6        30.12R WCI  -3
BUFFALO        SUNNY     10  -1  61 W9        30.12R WCI  -4
MAPLE LAKE     SUNNY     10   1  68 W9        30.11R WCI  -3
$$
MNZ037-044-045-052-053-201600-
   East Central Minnesota

CITY           SKY/WX    TMP DP  RH WIND       PRES   REMARKS
PRINCETON      SUNNY      9  -2  61 W7        30.08R WCI  -3
MORA             N/A    N/A N/A N/A MISG        N/A
CAMBRIDGE      SUNNY      9  -2  61 W12       30.06R WCI  -6
RUSH CITY      SUNNY      7  -2  66 W7        30.06R WCI  -5
MOOSE LAKE     SUNNY      9   0  66 W14G22    29.99R WCI  -8
HINCKLEY       FAIR      10   0  61 W10G16    30.03R WCI  -3
CLOQUET        SUNNY      5  -2  72 NW12G18   29.95R WCI -11
MCGREGOR       SUNNY      7   1  78 W8        30.01R WCI  -6
$$
MNZ071>073-080-081-089-090-097-098-201600-
   Southwest Minnesota

CITY           SKY/WX    TMP DP  RH WIND       PRES   REMARKS
MONTEVIDEO     MOSUNNY    9   3  78 NW5       30.16R WCI   0
GRANITE FALLS  MOSUNNY    4  -1  80 W7        30.17R WCI  -8
CANBY          MOSUNNY    8   3  79 W9        30.16R WCI  -5
MARSHALL       SUNNY      7   1  78 W9        30.13R WCI  -7
REDWOOD FALLS  SUNNY      9   2  73 W12       30.15R WCI  -6
OLIVIA         MOSUNNY    9   3  78 W7        30.14R WCI  -3
PIPESTONE      SUNNY      3   0  85 W3        30.11S
WINDOM         SUNNY      7   1  78 W7        30.12R WCI  -5
WORTHINGTON    SUNNY      7   5  92 W9        30.13R WCI  -7
JACKSON        SUNNY      9   3  78 W6        30.13R WCI  -1
TRACY          SUNNY     10   4  76 W5        30.14R WCI   2
SLAYTON        SUNNY      6   2  84 CALM      30.13R
$$
MNZ065>067-074>077-082>085-091>093-201600-
   South Central Minnesota

CITY           SKY/WX    TMP DP  RH WIND       PRES   REMARKS
MANKATO        SUNNY     10   3  72 W10       30.13R WCI  -3
NEW ULM        SUNNY      7   3  85 W8        30.15R WCI  -6
ST JAMES       SUNNY     10   5  79 W8        30.15R WCI  -1
FAIRMONT       SUNNY     10   3  72 W9        30.14R WCI  -2
GLENCOE        SUNNY      8   4  84 W6        30.13R WCI  -2
FARIBAULT      SUNNY     10   3  72 W9        30.12R WCI  -2
OWATONNA       SUNNY      9   3  78 W9        30.11R WCI  -5
WASECA         SUNNY      7   1  78 W5        30.14R WCI  -2
ALBERT LEA     SUNNY      9   5  85 W6        30.11R WCI  -1
$$
MNZ078>079-086>088-094>096-201600-
   Southeast Minnesota

CITY           SKY/WX    TMP DP  RH WIND       PRES   REMARKS
ROCHESTER      SUNNY     10   2  69 NW16      30.07R WCI  -7
RED WING         N/A     12   1  62 W10G18    30.08R WCI  -1
STANTON        SUNNY     11   2  67 W9        30.10R WCI  -2
DODGE CENTER   MOSUNNY   10   3  72 W10G18    30.07R WCI  -3
WINONA         SUNNY     18   5  57 NW12      30.09R WCI   5
AUSTIN         SUNNY     10   3  72 W12       30.10R WCI  -4
PRESTON        SUNNY     11   2  67 NW16      30.07R WCI  -5
$$
ABBREVIATIONS USED IN REMARKS
   TC - TEMPERATURES IN CELSIUS
  WCI - WIND CHILL INDEX
   HX - HEAT INDEX
  VSB - VISIBILITY
$$


USA.gov is the U.S. government's official web portal to all federal, state and local government web resources and services.